Regional Weather Roundup
Issued by NWS

Home | Current Version | Previous Version | Graphics & Text | Print | Product List | Glossary On
Versions: 1 2 3 4 5 6 7 8 9 10 11 12 13 14 15 16 17 18 19 20 21 22 23 24 25 26 27 28 29 30 31 32 33 34 35 36 37 38 39 40 41 42 43 44 45 46 47 48 49 50
006
ASUS43 KLOT 270007
RWRIL

ILLINOIS REGIONAL WEATHER ROUNDUP
NATIONAL WEATHER SERVICE CHICAGO/ROMEOVILLE IL
700 PM CDT WED APR 26 2017

NOTE: "FAIR" INDICATES FEW OR NO CLOUDS BELOW 12,000 FEET WITH NO
SIGNIFICANT WEATHER AND/OR OBSTRUCTIONS TO VISIBILITY.

* THESE STATIONS ARE NOT UNDER NWS QUALITY CONTROL. THEY ALSO MAY NOT
  REPORT WEATHER SUCH AS PRECIPITATION OR FOG.

ILZ001-002-007-009-015-016-024-270100-
NORTHWEST ILLINOIS

CITY           SKY/WX    TMP DP  RH WIND       PRES   REMARKS
MOLINE         LGT RAIN  51  46  83 W9        29.51S
6HR MIN TEMP:  51; 6HR MAX TEMP:  55; 6HR PCP: TRACE;

STERLING*      CLOUDY    52  49  89 W9        29.49F
SAVANNA*       CLOUDY    52  47  83 W8        29.50S
$$

ILZ003-004-008-010-011-017-018-270100-
NORTH CENTRAL ILLINOIS

CITY           SKY/WX    TMP DP  RH WIND       PRES   REMARKS
ROCKFORD       CLOUDY    55  52  89 W6        29.50F
6HR MIN TEMP:  55; 6HR MAX TEMP:  69; 6HR PCP: TRACE;

FREEPORT*      CLOUDY    51  48  91 W7        29.50F
ROCHELLE*      CLOUDY    55  51  89 W8        29.47F
DE KALB*       CLOUDY    57  54  88 NW7       29.47F
PERU*          CLOUDY    55  51  87 NW6       29.49R
$$

ILZ005-006-012>014-019>023-270100-
NORTHEAST ILLINOIS

CITY           SKY/WX    TMP DP  RH WIND       PRES   REMARKS
CHICAGO-OHARE  MOCLDY    67  57  70 W7        29.44F
6HR MIN TEMP:  67; 6HR MAX TEMP:  74;

CHICAGO-MIDWAY MOCLDY    70  57  63 W6        29.43F
6HR MIN TEMP:  70; 6HR MAX TEMP:  77;

AURORA         CLOUDY    62  56  80 W9        29.47F
6HR MIN TEMP:  62; 6HR MAX TEMP:  74; 6HR PCP: TRACE;

LANSING*       CLOUDY    71  58  62 SW6       29.44F
JOLIET*        CLOUDY    68  58  70 W5        29.46F
WAUKEGAN       CLOUDY    65  58  78 VRB6      29.46F
6HR MIN TEMP:  65; 6HR MAX TEMP:  74; 6HR PCP: TRACE;

DUPAGE AIRPORT CLOUDY    64  59  83 W15       29.49R
6HR MIN TEMP:  64; 6HR MAX TEMP:  74;

KANKAKEE*      MOCLDY    67  57  68 SW6       29.47F
WHEELING       CLOUDY    67  59  75 W5        29.47F
6HR MIN TEMP:  67; 6HR MAX TEMP:  74; 6HR PCP: TRACE;

MORRIS*        CLOUDY    64  58  81 NW10      29.46S
ROMEOVILLE*    CLOUDY    66  60  81 W8        29.47F
NORTHERLY ISL    N/A     72  53  51 W7          N/A
$$

LMZ740>746-270100-
SOUTHERN LAKE MICHIGAN

STATION/POSITION SKY/WX   TEMP    WIND        PRES    VSBY  WAVE
                          AIR SEA DIR/SP/G                  HT/PER
                          (F)     (DEG/KT/KT) (MB)    (MI)  (FT/S)
SOUTHERN BUOY              49 42  160/  8/  8  998.8          1/ 3
HARRISON CRIB              72     260/ 11/ 12   N/A
BURNHAM HARBOR             71      CALM  / 18   N/A
CALUMET HARBOR             74     200/ 12/ 17  997.5F
BURNS HARBOR               73     210/  8/ 16  998.6F
MICHIGAN CITY              74     190/  8/ 10   N/A
MICHIGAN CITY 6N           63 49                N/A           1/ 3
ST. JOSEPH                 56 49  170/  4/  6  998.5          1/ 4
$$

ILZ025>027-034>036-040-047-049-050-058-095>099-270100-
WEST-CENTRAL ILLINOIS

CITY           SKY/WX    TMP DP  RH WIND       PRES   REMARKS
QUINCY         CLOUDY    50  48  93 N10       29.49F FOG
GALESBURG*     CLOUDY    49  47  91 NW9       29.50S
MACOMB*        CLOUDY    50  48  92 NW14      29.52F
JACKSONVILLE*  LGT RAIN  55  53  95 NW9       29.47F
PITTSFIELD*    LGT RAIN  52  51  97 N7        29.48F
$$

ILZ028>032-037-038-041>044-048-051>054-059>061-270100-
CENTRAL ILLINOIS

CITY           SKY/WX    TMP DP  RH WIND       PRES   REMARKS
PONTIAC        LGT RAIN  66  62  87 W5        29.46F
BLOOMINGTON    LGT RAIN  62  59  90 W9        29.49R
DECATUR        LGT RAIN  62  62 100 S3        29.47F
PEORIA         CLOUDY    55  53  93 N3        29.49S
6HR MIN TEMP:  55; 6HR MAX TEMP:  68; 6HR PCP:  0.07;

LACON*         CLOUDY    55  52  90 NW5       29.48S
LINCOLN*       LGT RAIN  62  62 100 CALM      29.48R
SPRINGFIELD    LGT RAIN  63  59  87 SW5       29.48R FOG
6HR MIN TEMP:  63; 6HR MAX TEMP:  72; 6HR PCP:  0.16;

TAYLORVILLE    RAIN      61  60  97 SE9       29.47F
6HR MIN TEMP:  61; 6HR MAX TEMP:  76; 6HR PCP:  0.21;

$$

ILZ033-039-045-046-055>057-062-063-270100-
EAST-CENTRAL ILLINOIS

CITY           SKY/WX    TMP DP  RH WIND       PRES   REMARKS
CHAMPAIGN      HVY RAIN  63  59  87 S5        29.48F FOG
RANTOUL*       CLOUDY    66  62  86 SW6       29.48S
MATTOON        TSTM      63  63 100 W5        29.49F
PARIS*         CLOUDY    65  62  90 CALM      29.49F
$$

ILZ079-100>102-270100-
SOUTHWEST ILLINOIS

CITY           SKY/WX    TMP DP  RH WIND       PRES   REMARKS
ALTON          LGT RAIN  61  59  94 S7        29.48R
BELLEVILLE     LGT RAIN  62  62 100 CALM      29.48R
CAHOKIA*       LGT RAIN  62  60  93 S5        29.48R
SPARTA*        LGT RAIN  61  59  94 SE6       29.52R
$$

ILZ064>066-069>071-074>076-080>082-084>086-088>090-092>094-270100-
SOUTH-CENTRAL ILLINOIS

CITY           SKY/WX    TMP DP  RH WIND       PRES   REMARKS
CARBONDALE     NOT AVBL
CAIRO*         CLOUDY    59  58  97 NW18G26   29.54R
EFFINGHAM*     CLOUDY    62  62 100 S6        29.57R
MT. VERNON     CLOUDY    61  59  93 SW7       29.52F
CENTRALIA*     CLOUDY    62  61  97 S8        29.51R
SALEM*         LGT RAIN  62  59  91 S8        29.49F
METROPOLIS*    CLOUDY    64  57  79 NE3       29.50F
$$

ILZ067-068-072-073-078-083-087-091-270100-
SOUTHEAST ILLINOIS

CITY           SKY/WX    TMP DP  RH WIND       PRES   REMARKS
LAWRENCEVILLE  CLOUDY    63  60  90 NW5       29.50F
FLORA*         TSTM      63  61  94 NW8       29.53R
FAIRFIELD*     LGT RAIN  61  60  98 E6        29.49R
HARRISBURG*    CLOUDY    60  58  94 CALM      29.51F
ROBINSON*      CLOUDY    63  62  97 CALM      29.50F
CARMI*         CLOUDY    64  58  82 NW8G32    29.51R
$$

ABBREVIATIONS USED IN REMARKS
   TC - TEMPERATURE IN CELSIUS
  WCI - WIND CHILL INDEX
   HX - HEAT INDEX
  VSB - VISIBILITY
$$





USA.gov is the U.S. government's official web portal to all federal, state and local government web resources and services.